When you browse on this site, cookies collect data to enhance your experience and personalize the content and advertising you see.
Visit our Privacy Policy to learn more. By continuing to use the site, you agree to this use of cookies and data.

Hourly Weather Birmingham

Today, 13 August, Thursday

Time Temperature Precipitation Wind Pressure Humidity
00:00 +20°C° 1 mm 3 mps 747 mmHg 84%
01:00 +20°C° 0.2 mm 3 mps 747 mmHg 85%
02:00 +19°C° 0.2 mm 4 mps 747 mmHg 86%
03:00 +19°C° 0.2 mm 4 mps 746 mmHg 86%
04:00 +19°C° 0 mm 4 mps 746 mmHg 87%
05:00 +19°C° 0 mm 4 mps 746 mmHg 88%
06:00 +19°C° 0 mm 4 mps 746 mmHg 89%
07:00 +20°C° 0 mm 4 mps 747 mmHg 85%
08:00 +21°C° 0 mm 4 mps 747 mmHg 81%
09:00 +23°C° 0 mm 4 mps 747 mmHg 76%
10:00 +24°C° 0.1 mm 3 mps 747 mmHg 73%
11:00 +25°C° 0.1 mm 3 mps 747 mmHg 70%
12:00 +26°C° 0.1 mm 3 mps 747 mmHg 68%
13:00 +27°C° 0 mm 3 mps 747 mmHg 66%
14:00 +27°C° 0 mm 4 mps 747 mmHg 65%
15:00 +28°C° 0 mm 4 mps 747 mmHg 63%
16:00 +27°C° 0.1 mm 4 mps 747 mmHg 67%
17:00 +26°C° 0.1 mm 5 mps 746 mmHg 70%
18:00 +25°C° 0.1 mm 5 mps 746 mmHg 73%
19:00 +23°C° 0.3 mm 5 mps 747 mmHg 77%
20:00 +21°C° 0.3 mm 5 mps 747 mmHg 82%
21:00 +20°C° 0.3 mm 4 mps 747 mmHg 86%
22:00 +19°C° 0.2 mm 4 mps 747 mmHg 87%
23:00 +19°C° 0.2 mm 4 mps 747 mmHg 87%

Tomorrow, 14 August, Friday

Time Temperature Precipitation Wind Pressure Humidity
00:00 +18°C° 0.2 mm 4 mps 747 mmHg 88%
01:00 +18°C° 0.2 mm 4 mps 747 mmHg 88%
02:00 +18°C° 0.2 mm 4 mps 747 mmHg 88%
03:00 +18°C° 0.2 mm 4 mps 747 mmHg 88%
04:00 +18°C° 0 mm 4 mps 747 mmHg 88%
05:00 +18°C° 0 mm 4 mps 747 mmHg 88%
06:00 +17°C° 0 mm 4 mps 747 mmHg 88%
07:00 +18°C° 0 mm 4 mps 747 mmHg 85%
08:00 +19°C° 0 mm 4 mps 747 mmHg 81%
09:00 +20°C° 0 mm 4 mps 748 mmHg 77%
10:00 +21°C° 0 mm 5 mps 748 mmHg 73%
11:00 +23°C° 0 mm 5 mps 748 mmHg 68%
12:00 +25°C° 0 mm 5 mps 748 mmHg 64%
13:00 +25°C° 0 mm 5 mps 748 mmHg 61%
14:00 +26°C° 0 mm 5 mps 748 mmHg 59%
15:00 +26°C° 0 mm 5 mps 748 mmHg 56%
16:00 +25°C° 0 mm 4 mps 748 mmHg 60%
17:00 +25°C° 0 mm 4 mps 748 mmHg 63%
18:00 +23°C° 0 mm 4 mps 748 mmHg 66%
19:00 +21°C° 0 mm 4 mps 748 mmHg 70%
20:00 +20°C° 0 mm 3 mps 749 mmHg 74%
21:00 +18°C° 0 mm 3 mps 749 mmHg 78%
22:00 +18°C° 0 mm 3 mps 749 mmHg 81%
23:00 +17°C° 0 mm 4 mps 749 mmHg 84%

Day after tomorrow, 15 August, Saturday

Time Temperature Precipitation Wind Pressure Humidity
00:00 +15°C° 0 mm 4 mps 749 mmHg 87%
01:00 +16°C° 0 mm 3 mps 749 mmHg 88%
02:00 +16°C° 0 mm 3 mps 749 mmHg 89%
03:00 +16°C° 0 mm 3 mps 749 mmHg 90%
04:00 +16°C° 0 mm 3 mps 749 mmHg 89%
05:00 +16°C° 0 mm 3 mps 749 mmHg 88%
06:00 +16°C° 0 mm 3 mps 749 mmHg 87%
07:00 +17°C° 0 mm 3 mps 749 mmHg 84%
08:00 +17°C° 0 mm 3 mps 750 mmHg 81%
09:00 +18°C° 0 mm 3 mps 750 mmHg 78%
10:00 +20°C° 0 mm 3 mps 750 mmHg 72%
11:00 +21°C° 0 mm 3 mps 750 mmHg 66%
12:00 +24°C° 0 mm 3 mps 749 mmHg 59%
13:00 +24°C° 0 mm 3 mps 749 mmHg 57%
14:00 +25°C° 0 mm 3 mps 749 mmHg 55%
15:00 +26°C° 0 mm 3 mps 749 mmHg 53%
16:00 +25°C° 0 mm 3 mps 749 mmHg 57%
17:00 +24°C° 0 mm 3 mps 748 mmHg 60%
18:00 +22°C° 0 mm 3 mps 748 mmHg 63%
19:00 +20°C° 0 mm 3 mps 748 mmHg 68%
20:00 +19°C° 0 mm 3 mps 748 mmHg 74%
21:00 +17°C° 0 mm 4 mps 748 mmHg 79%
22:00 +16°C° 0 mm 3 mps 748 mmHg 83%
23:00 +14°C° 0 mm 3 mps 748 mmHg 86%

16 August, Sunday

Time Temperature Precipitation Wind Pressure Humidity
00:00 +14°C° 0 mm 2 mps 747 mmHg 89%
01:00 +14°C° 0 mm 2 mps 747 mmHg 91%
02:00 +14°C° 0 mm 2 mps 747 mmHg 92%
03:00 +14°C° 0 mm 2 mps 747 mmHg 93%
04:00 +14°C° 0 mm 2 mps 746 mmHg 91%
05:00 +15°C° 0 mm 2 mps 746 mmHg 90%
06:00 +16°C° 0 mm 2 mps 746 mmHg 88%
07:00 +16°C° 0 mm 2 mps 746 mmHg 86%
08:00 +17°C° 0 mm 2 mps 746 mmHg 84%
09:00 +18°C° 0 mm 1 mps 746 mmHg 82%
10:00 +18°C° 0 mm 2 mps 746 mmHg 78%
11:00 +19°C° 0 mm 2 mps 746 mmHg 74%
12:00 +20°C° 0 mm 2 mps 746 mmHg 71%
13:00 +21°C° 0 mm 2 mps 745 mmHg 69%
14:00 +23°C° 0 mm 2 mps 745 mmHg 67%
15:00 +23°C° 0 mm 2 mps 745 mmHg 65%
16:00 +23°C° 0 mm 2 mps 745 mmHg 67%
17:00 +23°C° 0 mm 2 mps 745 mmHg 69%
18:00 +21°C° 0 mm 2 mps 744 mmHg 71%
19:00 +20°C° 0.2 mm 2 mps 744 mmHg 75%
20:00 +19°C° 0.2 mm 3 mps 744 mmHg 79%
21:00 +18°C° 0.2 mm 3 mps 744 mmHg 84%
22:00 +18°C° 1.2 mm 3 mps 744 mmHg 87%
23:00 +18°C° 1.2 mm 3 mps 744 mmHg 90%

17 August, Monday

Time Temperature Precipitation Wind Pressure Humidity
00:00 +17°C° 1.2 mm 3 mps 744 mmHg 93%
01:00 +17°C° 0.5 mm 2 mps 743 mmHg 94%
02:00 +17°C° 0.5 mm 2 mps 743 mmHg 95%
03:00 +17°C° 0.5 mm 2 mps 743 mmHg 95%
04:00 +17°C° 1.5 mm 2 mps 743 mmHg 95%
05:00 +17°C° 1.5 mm 2 mps 743 mmHg 95%
06:00 +18°C° 1.5 mm 1 mps 743 mmHg 94%
07:00 +19°C° 0.3 mm 1 mps 743 mmHg 91%
08:00 +19°C° 0.3 mm 1 mps 743 mmHg 88%
09:00 +20°C° 0.3 mm 1 mps 743 mmHg 84%
10:00 +21°C° 0.2 mm 1 mps 743 mmHg 81%
11:00 +20°C° 0.2 mm 2 mps 743 mmHg 78%
12:00 +21°C° 0.2 mm 2 mps 743 mmHg 74%
13:00 +21°C° 0.4 mm 2 mps 743 mmHg 71%
14:00 +22°C° 0.4 mm 3 mps 743 mmHg 67%
15:00 +24°C° 0.4 mm 3 mps 743 mmHg 64%
16:00 +22°C° 0.5 mm 3 mps 743 mmHg 67%
17:00 +21°C° 0.5 mm 3 mps 743 mmHg 71%
18:00 +21°C° 0.5 mm 3 mps 743 mmHg 74%
19:00 +19°C° 0.8 mm 3 mps 743 mmHg 79%
20:00 +18°C° 0.8 mm 3 mps 744 mmHg 84%
21:00 +17°C° 0.8 mm 3 mps 744 mmHg 89%
22:00 +16°C° 0 mm 3 mps 744 mmHg 89%
23:00 +16°C° 0 mm 2 mps 744 mmHg 89%

18 August, Tuesday

Time Temperature Precipitation Wind Pressure Humidity
00:00 +15°C° 0 mm 2 mps 744 mmHg 89%
01:00 +15°C° 0 mm 2 mps 744 mmHg 88%
02:00 +14°C° 0 mm 2 mps 744 mmHg 87%
03:00 +14°C° 0 mm 2 mps 744 mmHg 86%
04:00 +14°C° 0 mm 2 mps 744 mmHg 87%
05:00 +14°C° 0 mm 2 mps 744 mmHg 88%
06:00 +14°C° 0 mm 2 mps 744 mmHg 89%
07:00 +16°C° 0 mm 3 mps 744 mmHg 85%
08:00 +17°C° 0 mm 3 mps 744 mmHg 81%
09:00 +18°C° 0 mm 4 mps 745 mmHg 77%
10:00 +19°C° 0.1 mm 4 mps 745 mmHg 73%
11:00 +20°C° 0.1 mm 5 mps 745 mmHg 68%
12:00 +22°C° 0.1 mm 5 mps 745 mmHg 64%
13:00 +22°C° 0.1 mm 5 mps 744 mmHg 63%
14:00 +22°C° 0.1 mm 5 mps 744 mmHg 61%
15:00 +23°C° 0.1 mm 5 mps 744 mmHg 59%
16:00 +22°C° 0.1 mm 4 mps 744 mmHg 64%
17:00 +21°C° 0.1 mm 4 mps 744 mmHg 68%
18:00 +21°C° 0.1 mm 3 mps 744 mmHg 72%
19:00 +19°C° 0 mm 3 mps 744 mmHg 76%
20:00 +18°C° 0 mm 2 mps 744 mmHg 81%
21:00 +17°C° 0 mm 2 mps 744 mmHg 85%
22:00 +17°C° 0 mm 2 mps 744 mmHg 86%
23:00 +16°C° 0 mm 2 mps 744 mmHg 86%
Show more